Date,TemperatureHighF,TemperatureAvgF,TemperatureLowF,DewpointHighF,DewpointAvgF,DewpointLowF,HumidityHigh,HumidityAvg,HumidityLow,PressureMaxIn,PressureMinIn,WindSpeedMaxMPH,WindSpeedAvgMPH,GustSpeedMaxMPH,PrecipitationSumIn
2014-1-1,31,27,19,31,26,17,100,95,83,0.00,40.00,17,8,25,0.00
2014-2-8,18,10,0,13,5,-3,86,79,69,0.00,40.00,20,9,26,0.00
2014-2-9,13,4,0,3,-1,-4,86,78,60,0.00,40.00,16,6,22,0.00
2014-2-10,33,18,5,21,11,-1,83,75,62,0.00,40.00,15,8,20,0.05
2014-2-11,39,29,20,30,20,13,99,69,49,0.00,40.00,30,12,54,0.01
2014-2-12,45,34,18,23,21,16,99,61,42,0.00,40.00,22,10,32,0.00
2014-2-13,50,37,31,31,23,18,79,57,43,0.00,40.00,24,10,42,0.00
2014-2-14,40,36,30,33,17,11,99,48,32,0.00,40.00,19,10,32,0.00
2014-3-17,55,47,36,34,24,18,92,43,28,0.00,40.00,26,16,37,0.00
2014-3-18,36,32,29,31,28,23,100,86,65,0.00,40.00,25,14,55,0.01
2014-3-19,43,34,26,29,24,19,98,68,37,0.00,40.00,14,6,26,0.01
2014-3-20,56,38,32,27,18,-100,69,47,20,0.00,40.00,30,14,41,0.00
2014-3-21,32,27,19,25,19,-100,92,77,47,0.00,40.00,23,15,36,0.00
2014-3-22,24,18,14,17,14,11,92,83,58,0.00,40.00,11,6,17,0.00
2014-3-23,36,26,16,26,18,12,86,73,54,0.00,40.00,25,14,36,0.01
2014-4-20,61,51,42,39,30,17,75,47,24,0.00,40.00,19,10,41,0.00
2014-4-21,69,54,38,30,22,17,54,31,15,0.00,40.00,20,7,28,0.00
2014-4-22,73,58,46,42,36,30,59,45,20,0.00,40.00,33,14,43,0.00
2014-4-23,58,49,38,41,31,17,93,53,27,0.00,40.00,25,14,43,0.00
2014-4-24,62,48,33,27,20,16,68,36,18,0.00,40.00,10,7,19,0.00
2014-4-25,67,53,37,33,27,23,61,39,19,0.00,40.00,14,7,42,0.00
2014-4-26,69,57,47,33,32,30,54,39,26,0.00,40.00,24,11,33,0.00
2014-5-26,82,69,54,51,45,35,82,48,19,0.00,40.00,14,9,20,0.00
2014-5-27,77,65,54,54,50,45,87,61,39,0.00,40.00,24,10,37,0.06
2014-5-28,88,71,59,56,47,35,83,48,15,0.00,40.00,27,17,45,0.01
2014-5-29,69,64,54,56,49,42,69,59,43,0.00,40.00,24,15,32,0.00
2014-5-30,72,59,51,52,46,41,74,62,46,0.00,40.00,17,8,26,0.00
2014-5-31,76,63,52,53,49,43,97,65,32,0.00,40.00,23,15,54,0.31
2014-6-1,58,54,51,53,50,47,98,86,68,0.00,40.00,16,8,25,0.32
2014-7-24,101,88,65,61,43,28,62,26,8,0.00,40.00,23,15,42,0.00
2014-7-25,93,72,53,50,41,32,75,39,14,0.00,40.00,17,8,25,0.00
2014-7-26,81,71,59,36,32,27,33,24,16,0.00,40.00,15,8,27,0.00
2014-7-27,86,71,50,45,37,33,59,33,16,0.00,40.00,12,5,17,0.00
2014-7-28,90,75,59,52,46,41,65,40,20,0.00,40.00,20,11,30,0.00
2014-7-29,73,66,59,61,56,51,88,70,48,0.00,40.00,18,8,28,0.16
2014-7-30,84,70,56,55,43,30,85,46,14,0.00,40.00,12,7,34,0.01
2014-7-31,90,72,59,46,35,22,55,30,9,0.00,40.00,16,7,25,0.00
2014-8-1,88,74,61,46,39,33,49,30,14,0.00,40.00,18,9,33,0.00
2014-8-2,90,75,58,45,39,34,53,30,14,0.00,40.00,13,4,19,0.00
2014-8-3,92,78,67,50,44,40,51,31,18,0.00,40.00,17,6,23,0.00
2014-8-4,88,72,62,61,53,41,97,56,27,0.00,40.00,13,7,27,0.16
2014-8-5,80,69,61,63,60,57,99,76,47,0.00,40.00,19,6,27,0.17
2014-8-6,81,68,61,64,59,47,100,80,32,0.00,40.00,10,5,15,0.02
2014-10-25,81,56,39,35,30,22,69,43,11,0.00,40.00,25,14,35,0.00
2014-10-26,72,60,40,35,26,12,68,30,11,0.00,40.00,20,14,42,0.00
2014-10-27,49,42,34,30,24,18,68,49,30,0.00,40.00,26,14,43,0.00
2014-10-28,54,39,29,24,18,11,80,48,21,0.00,40.00,13,4,22,0.00
2014-10-29,62,48,36,29,19,11,47,32,19,0.00,40.00,24,11,42,0.00
2014-10-30,60,47,37,32,28,24,67,48,28,0.00,40.00,18,6,25,0.00
2014-10-31,59,45,34,32,30,28,81,60,31,0.00,40.00,34,24,47,0.00
2014-11-7,54,50,41,39,31,22,80,49,31,0.00,40.00,29,15,46,0.00
2014-11-8,61,46,32,35,24,15,92,50,19,0.00,40.00,12,6,19,0.00
2014-11-9,63,50,38,38,23,15,95,38,20,0.00,40.00,17,6,25,0.11
2014-11-10,38,15,8,37,12,4,96,86,78,0.00,40.00,32,18,44,0.05
2014-11-11,8,3,-4,5,-2,-8,89,79,66,0.00,40.00,19,13,27,0.00
2014-11-12,8,0,-6,-2,-6,-10,84,76,62,0.00,40.00,11,6,15,0.00
2014-11-13,13,1,-10,1,-6,-15,80,72,55,0.00,40.00,14,9,20,0.00
2014-11-18,41,28,13,22,15,4,74,56,38,0.00,40.00,25,12,40,0.00
2014-11-19,37,26,21,23,20,16,95,79,57,0.00,40.00,8,4,18,0.00
2014-11-20,42,32,21,27,21,16,82,63,47,0.00,40.00,11,8,15,0.00
2014-11-21,47,37,30,29,26,22,78,65,48,0.00,40.00,12,6,17,0.00
2014-11-22,47,40,32,33,26,15,94,58,43,0.00,40.00,24,15,44,0.00
2014-11-23,35,33,28,23,18,15,69,55,44,0.00,40.00,30,17,47,0.00
2014-11-24,36,31,26,30,24,16,96,76,56,0.00,40.00,33,17,56,0.00
2014-11-25,34,30,26,33,26,16,100,88,55,0.00,40.00,24,13,41,0.00
2014-11-26,32,28,23,28,26,21,98,93,82,0.00,40.00,17,6,29,0.01
2014-11-27,49,40,22,34,29,20,92,65,54,0.00,40.00,15,10,23,0.09
2014-11-28,57,48,43,31,26,14,59,43,22,0.00,40.00,23,10,32,0.02
2014-11-29,52,23,2,25,11,-3,94,67,22,0.00,40.00,20,12,28,0.00
2014-11-30,14,3,-3,2,-3,-8,83,75,58,0.00,40.00,15,7,21,0.00
2014-12-1,41,24,4,27,13,-8,72,63,50,0.00,40.00,26,13,36,0.00
2014-12-2,36,29,18,27,18,11,87,66,43,0.00,40.00,20,8,28,0.00
2014-12-3,36,25,16,24,16,6,87,67,52,0.00,40.00,25,11,33,0.00
2014-12-4,57,40,24,32,27,18,86,63,36,0.00,40.00,13,7,16,0.00
2014-12-5,52,39,32,34,31,27,89,74,50,0.00,40.00,16,6,20,0.00
2014-12-6,50,40,32,34,30,26,84,68,52,0.00,40.00,15,10,27,0.00
2014-12-7,47,38,32,31,27,25,80,64,44,0.00,40.00,22,8,35,0.00
2014-12-8,48,37,29,28,25,23,82,64,41,0.00,40.00,17,7,26,0.00
2014-12-9,55,42,33,27,25,23,75,52,30,0.00,40.00,11,7,20,0.00
2014-12-10,58,45,37,30,26,24,59,44,32,0.00,40.00,16,6,22,0.00
2014-12-11,58,49,43,29,22,19,50,34,24,0.00,40.00,28,18,43,0.00
2014-12-12,60,55,49,33,30,28,46,38,30,0.00,40.00,26,16,38,0.00
2014-12-13,60,54,36,34,29,26,80,40,31,0.00,40.00,31,18,49,0.00
2014-12-14,36,32,28,31,28,25,93,86,80,0.00,40.00,26,21,43,0.00
2014-12-15,28,23,21,26,22,20,97,94,92,0.00,40.00,23,12,33,0.00
2014-12-16,30,20,14,23,18,12,98,90,71,0.00,40.00,14,7,18,0.00
2014-12-17,33,22,13,21,17,11,97,84,60,0.00,40.00,8,4,12,0.00
2014-12-18,39,28,21,22,19,16,84,70,48,0.00,40.00,14,9,19,0.00
2014-12-19,39,31,23,24,19,15,72,62,42,0.00,40.00,12,9,17,0.00
2014-12-20,45,34,31,27,24,22,79,67,47,0.00,40.00,13,8,16,0.00
2014-12-21,45,37,32,36,28,21,98,69,54,0.00,40.00,24,13,63,0.00
2014-12-22,36,34,32,31,24,20,96,68,57,0.00,40.00,35,24,52,0.00
2014-12-23,35,30,25,24,21,15,81,69,56,0.00,40.00,32,18,52,0.00
2014-12-24,42,34,25,27,20,12,75,58,46,0.00,40.00,14,11,21,0.00
2014-12-25,32,25,19,29,23,17,96,92,75,0.00,40.00,19,14,28,0.00
2014-12-26,23,18,12,18,15,11,97,86,70,0.00,40.00,8,3,12,0.00